Weather History for KCOD - March, 2014

Change the Weather History Date:

Friday, March 28, 2014

  Actual Average (KGEY) Record (KGEY)
Temperature  
Mean Temperature 36 °F 41 °F  
Max Temperature 48 °F 55 °F 71 °F (2012)
Min Temperature 24 °F 27 °F 15 °F (2008)
Degree Days  
Heating Degree Days 29 24  
Month to date heating degree days 801  
Since 1 July heating degree days 6772  
Cooling Degree Days 0 0  
Month to date cooling degree days 0  
Year to date cooling degree days 0  
Moisture  
Dew Point 20 °F    
Average Humidity 58    
Maximum Humidity 100    
Minimum Humidity 24    
Precipitation  
Precipitation 0.00 in 0.02 in 0.19 in (2007)
Month to date precipitation 0.34  
Year to date precipitation 0.75  
Sea Level Pressure  
Sea Level Pressure 29.92 in    
Wind  
Wind Speed 8 mph (West)    
Max Wind Speed 22 mph    
Max Gust Speed 31 mph    
Visibility 10 miles    
Events      
T = Trace of Precipitation, MM = Missing Value Source: NWS Daily Summary

Daily Weather History Graph

Daily Weather History Graph

Search for Another Location

Airport or City:

Trip Planner

Search our weather history database for the weather conditions in past years. The results will help you decide how hot, cold, wet, or windy it might be!

Date:

Astronomy

Mar. 28, 2014 Rise Set
Actual Time 7:04 AM MDT 7:38 PM MDT
Civil Twilight 6:35 AM MDT 8:07 PM MDT
Nautical Twilight 6:00 AM MDT 8:42 PM MDT
Astronomical Twilight 5:24 AM MDT 9:18 PM MDT
Moon 5:42 AM MDT (3/28) 5:35 PM MDT (3/28)
Length of Visible Light 13h 32m
Length of Day
12h 34m
Waning Crescent, 6% of the Moon is Illuminated
Mar 28
Waning Crescent
Mar 30
New
Apr 7
First Quarter
Apr 15
Full
Apr 22
Last Quarter

Hourly Weather History & Observations

Time (MDT) Temp. Windchill Dew Point Humidity Pressure Visibility Wind Dir Wind Speed Gust Speed Precip Events Conditions
12:15 AM 30.2 °F 26.7 °F 28.4 °F 93% 29.76 in 10.0 mi West 3.5 mph - N/A   Partly Cloudy
12:35 AM 30.2 °F - 28.4 °F 93% 29.77 in 10.0 mi Calm Calm - N/A   Clear
12:55 AM 32.0 °F 27.5 °F 30.2 °F 93% 29.78 in 10.0 mi NE 4.6 mph - N/A   Clear
1:15 AM 30.2 °F 24.3 °F 26.6 °F 86% 29.78 in 10.0 mi NE 5.8 mph - N/A   Clear
1:35 AM 30.2 °F - 26.6 °F 86% 29.80 in 10.0 mi Calm Calm - N/A   Mostly Cloudy
1:55 AM 30.2 °F 21.9 °F 26.6 °F 86% 29.80 in 10.0 mi NE 9.2 mph - N/A   Partly Cloudy
2:15 AM 28.4 °F 19.7 °F 26.6 °F 93% 29.80 in 10.0 mi NE 9.2 mph - N/A   Scattered Clouds
2:35 AM 28.4 °F 19.7 °F 26.6 °F 93% 29.81 in 10.0 mi NE 9.2 mph - N/A   Mostly Cloudy
2:55 AM 28.4 °F 19.7 °F 26.6 °F 93% 29.81 in 10.0 mi NNE 9.2 mph - N/A   Mostly Cloudy
3:15 AM 26.6 °F 18.2 °F 26.6 °F 100% 29.81 in 10.0 mi NNE 8.1 mph - N/A   Overcast
3:35 AM 26.6 °F 20.0 °F 26.6 °F 100% 29.82 in 10.0 mi North 5.8 mph - N/A   Overcast
3:55 AM 26.6 °F 19.1 °F 24.8 °F 93% 29.83 in 10.0 mi NNE 6.9 mph - N/A   Overcast
4:15 AM 26.6 °F 21.2 °F 24.8 °F 93% 29.83 in 10.0 mi NNE 4.6 mph - N/A   Overcast
4:35 AM 24.8 °F 17.9 °F 24.8 °F 100% 29.84 in 10.0 mi North 5.8 mph - N/A   Mostly Cloudy
4:55 AM 24.8 °F 19.1 °F 24.8 °F 100% 29.84 in 10.0 mi NNE 4.6 mph - N/A   Mostly Cloudy
5:15 AM 24.8 °F 19.1 °F 24.8 °F 100% 29.84 in 10.0 mi East 4.6 mph - N/A   Overcast
5:35 AM 24.8 °F - 23.0 °F 93% 29.86 in 10.0 mi Calm Calm - N/A   Mostly Cloudy
5:55 AM 24.8 °F - 24.8 °F 100% 29.87 in 10.0 mi Calm Calm - N/A   Mostly Cloudy
6:15 AM 24.8 °F 16.1 °F 24.8 °F 100% 29.88 in 10.0 mi North 8.1 mph - N/A   Mostly Cloudy
6:35 AM 26.6 °F 20.0 °F 24.8 °F 93% 29.89 in 10.0 mi North 5.8 mph - N/A   Overcast
6:55 AM 24.8 °F 19.1 °F 24.8 °F 100% 29.90 in 10.0 mi North 4.6 mph - N/A   Overcast
7:15 AM 24.8 °F 20.5 °F 23.0 °F 93% 29.91 in 10.0 mi NNE 3.5 mph - N/A   Mostly Cloudy
7:35 AM 24.8 °F 16.9 °F 23.0 °F 93% 29.91 in 10.0 mi NNE 6.9 mph - N/A   Scattered Clouds
7:55 AM 24.8 °F 17.9 °F 23.0 °F 93% 29.92 in 10.0 mi East 5.8 mph - N/A   Mostly Cloudy
8:15 AM - - - N/A% 29.92 in 10.0 mi South 4.6 mph - N/A   Overcast
8:35 AM 26.6 °F 19.1 °F 24.8 °F 93% 29.93 in 5.0 mi SE 6.9 mph - N/A   Overcast
8:55 AM 28.4 °F 23.3 °F 28.4 °F 100% 29.93 in 10.0 mi North 4.6 mph - N/A   Scattered Clouds
9:15 AM 28.4 °F 22.2 °F 26.6 °F 93% 29.94 in 9.0 mi North 5.8 mph - N/A   Partly Cloudy
9:35 AM 26.6 °F 18.2 °F 24.8 °F 93% 29.95 in 9.0 mi North 8.1 mph - N/A   Mostly Cloudy
9:55 AM 32.0 °F 28.7 °F 28.4 °F 87% 29.95 in 10.0 mi ENE 3.5 mph - N/A   Partly Cloudy
10:15 AM 39.2 °F 34.2 °F 24.8 °F 56% 29.96 in 10.0 mi West 6.9 mph - N/A   Partly Cloudy
10:35 AM 42.8 °F 34.5 °F 19.4 °F 39% 29.96 in 10.0 mi West 18.4 mph 24.2 mph N/A   Clear
10:55 AM 42.8 °F 35.8 °F 17.6 °F 36% 29.97 in 10.0 mi West 13.8 mph 21.9 mph N/A   Clear
11:15 AM 42.8 °F 35.8 °F 15.8 °F 34% 29.97 in 10.0 mi West 13.8 mph 25.3 mph N/A   Mostly Cloudy
11:35 AM 44.6 °F 36.9 °F 17.6 °F 34% 29.98 in 10.0 mi West 18.4 mph 27.6 mph N/A   Mostly Cloudy
11:55 AM 44.6 °F 37.8 °F 15.8 °F 31% 29.98 in 10.0 mi West 15.0 mph 21.9 mph N/A   Partly Cloudy
12:15 PM 44.6 °F 37.4 °F 15.8 °F 31% 29.98 in 10.0 mi West 16.1 mph 25.3 mph N/A   Clear
12:35 PM 44.6 °F 37.4 °F 15.8 °F 31% 29.98 in 10.0 mi WSW 16.1 mph 27.6 mph N/A   Clear
12:55 PM 44.6 °F 37.2 °F 15.8 °F 31% 29.98 in 10.0 mi WSW 17.3 mph 26.5 mph N/A   Clear
1:15 PM 46.4 °F 40.4 °F 15.8 °F 29% 29.98 in 10.0 mi WSW 13.8 mph 21.9 mph N/A   Partly Cloudy
1:35 PM 46.4 °F 40.1 °F 15.8 °F 29% 29.98 in 10.0 mi West 15.0 mph 23.0 mph N/A   Partly Cloudy
1:55 PM 46.4 °F 39.8 °F 15.8 °F 29% 29.98 in 10.0 mi West 16.1 mph 27.6 mph N/A   Clear
2:15 PM 46.4 °F 41.1 °F 14.0 °F 27% 29.98 in 10.0 mi West 11.5 mph 24.2 mph N/A   Clear
2:35 PM 48.2 °F - 14.0 °F 25% 29.97 in 10.0 mi West 18.4 mph 27.6 mph N/A   Partly Cloudy
2:55 PM 48.2 °F - 14.0 °F 25% 29.97 in 10.0 mi WSW 15.0 mph 28.8 mph N/A   Clear
3:15 PM 48.2 °F - 14.0 °F 25% 29.96 in 10.0 mi WSW 19.6 mph 26.5 mph N/A   Clear
3:35 PM 48.2 °F - 12.2 °F 24% 29.97 in 10.0 mi WSW 13.8 mph 23.0 mph N/A   Clear
3:55 PM 48.2 °F - 14.0 °F 25% 29.97 in 10.0 mi West 13.8 mph 25.3 mph N/A   Scattered Clouds
4:15 PM 46.4 °F 40.4 °F 12.2 °F 25% 29.96 in 10.0 mi West 13.8 mph 19.6 mph N/A   Partly Cloudy
4:35 PM 46.4 °F 39.2 °F 12.2 °F 25% 29.96 in 10.0 mi West 18.4 mph 28.8 mph N/A   Clear
4:55 PM 48.2 °F - 15.8 °F 27% 29.97 in 10.0 mi West 21.9 mph 29.9 mph N/A   Clear
5:15 PM 46.4 °F 39.2 °F 14.0 °F 27% 29.97 in 10.0 mi WSW 18.4 mph 26.5 mph N/A   Clear
5:35 PM 46.4 °F 40.1 °F 14.0 °F 27% 29.97 in 10.0 mi West 15.0 mph 31.1 mph N/A   Clear
5:55 PM 46.4 °F 40.4 °F 14.0 °F 27% 29.96 in 10.0 mi WSW 13.8 mph 24.2 mph N/A   Clear
6:15 PM 46.4 °F 39.5 °F 15.8 °F 29% 29.97 in 10.0 mi WSW 17.3 mph 26.5 mph N/A   Clear
6:35 PM 46.4 °F 40.4 °F 15.8 °F 29% 29.97 in 10.0 mi WSW 13.8 mph 20.7 mph N/A   Clear
6:55 PM 46.4 °F 39.5 °F 15.8 °F 29% 29.97 in 10.0 mi WSW 17.3 mph 27.6 mph N/A   Clear
7:15 PM 44.6 °F 37.4 °F 15.8 °F 31% 29.97 in 10.0 mi West 16.1 mph 26.5 mph N/A   Clear
7:35 PM 44.6 °F 38.8 °F 17.6 °F 34% 29.97 in 10.0 mi WSW 11.5 mph 23.0 mph N/A   Clear
7:55 PM 42.8 °F 35.4 °F 17.6 °F 36% 29.97 in 10.0 mi WSW 15.0 mph 24.2 mph N/A   Clear
8:15 PM 42.8 °F 37.0 °F 17.6 °F 36% 29.97 in 10.0 mi SW 10.4 mph 19.6 mph N/A   Clear
8:35 PM 42.8 °F 35.8 °F 19.4 °F 39% 29.97 in 10.0 mi WSW 13.8 mph 18.4 mph N/A   Clear
8:55 PM 42.8 °F 34.8 °F 19.4 °F 39% 29.97 in 10.0 mi SW 17.3 mph 20.7 mph N/A   Clear
9:15 PM 42.8 °F 36.2 °F 19.4 °F 39% 29.97 in 10.0 mi WSW 12.7 mph 20.7 mph N/A   Clear
9:35 PM 44.6 °F 37.8 °F 19.4 °F 37% 29.97 in 10.0 mi SW 15.0 mph 26.5 mph N/A   Clear
9:55 PM 42.8 °F 37.0 °F 19.4 °F 39% 29.97 in 10.0 mi SW 10.4 mph 18.4 mph N/A   Clear
10:15 PM 42.8 °F 36.6 °F 21.2 °F 42% 29.97 in 10.0 mi SSW 11.5 mph - N/A   Clear
10:35 PM 42.8 °F 37.5 °F 19.4 °F 39% 29.97 in 10.0 mi SW 9.2 mph 19.6 mph N/A   Partly Cloudy
10:55 PM 42.8 °F 36.6 °F 19.4 °F 39% 29.97 in 10.0 mi SSW 11.5 mph - N/A   Partly Cloudy
11:15 PM 42.8 °F 36.2 °F 21.2 °F 42% 29.96 in 10.0 mi SSW 12.7 mph 18.4 mph N/A   Clear
11:35 PM 44.6 °F 37.4 °F 21.2 °F 39% 29.96 in 10.0 mi SW 16.1 mph 20.7 mph N/A   Partly Cloudy
11:55 PM 44.6 °F 38.1 °F 21.2 °F 39% 29.95 in 10.0 mi SSW 13.8 mph 24.2 mph N/A   Partly Cloudy